Weather History for Deer Park, WA

Change the Weather History Date:

Tuesday, December 11, 2012

  Actual Average Record
Temperature  
Mean Temperature 33 °F 26 °F  
Max Temperature 36 °F 32 °F 51 °F (2014)
Min Temperature 30 °F 19 °F 1 °F (2000)
Degree Days  
Heating Degree Days 32 39  
Month to date heating degree days 347 419  
Since 1 July heating degree days 2084 2422  
Cooling Degree Days 0 0  
Month to date cooling degree days 0 0  
Year to date cooling degree days 232 187  
Moisture  
Dew Point 32 °F    
Average Humidity 91    
Maximum Humidity 100    
Minimum Humidity 82    
Precipitation  
Precipitation 0.03 in 0.09 in 0.21 in (2002)
Month to date precipitation 1.50 0.98  
Year to date precipitation 25.61 20.37  
Sea Level Pressure  
Sea Level Pressure 29.72 in    
Wind  
Wind Speed 2 mph (East)    
Max Wind Speed 6 mph    
Max Gust Speed 7 mph    
Visibility 6 miles    
Events Fog , Snow    
T = Trace of Precipitation, MM = Missing Value Source: NWS Daily Summary

Daily Weather History Graph

Daily Weather History Graph

Search for Another Location

Airport:

Trip Planner

Search our weather history database for the weather conditions in past years. The results will help you decide how hot, cold, wet, or windy it might be!

Date:

Astronomy

Dec. 11, 2012 Rise Set
Actual Time 7:29 AM PST 3:56 PM PST
Civil Twilight 6:53 AM PST 4:32 PM PST
Nautical Twilight 6:14 AM PST 5:12 PM PST
Astronomical Twilight 5:36 AM PST 5:50 PM PST
Moon 5:26 AM PST (12/11) 2:42 PM PST (12/11)
Length of Visible Light 9h 39m
Length of Day
8h 26m
Waning Crescent, 4% of the Moon is Illuminated
Dec 11
Waning Crescent
Dec 13
New
Dec 19
First Quarter
Dec 28
Full
Jan 4
Last Quarter

Hourly Weather History & Observations

Time (PST) Temp. Windchill Dew Point Humidity Pressure Visibility Wind Dir Wind Speed Gust Speed Precip Events Conditions
12:05 AM 30.2 °F - 28.4 °F 93% 29.99 in 1.2 mi Calm Calm - N/A   Overcast
12:27 AM 30.2 °F - 30.2 °F 100% 29.97 in 0.8 mi Calm Calm - N/A   Mist
12:53 AM 30.0 °F - 30.0 °F 100% 30.02 in 0.8 mi Calm Calm - N/A   Mist
1:53 AM 30.9 °F - 30.0 °F 96% 30.00 in 0.5 mi Calm Calm - N/A Fog Light Freezing Fog
2:53 AM 30.9 °F - 30.0 °F 96% 29.96 in 0.5 mi Calm Calm - N/A Fog Light Freezing Fog
3:36 AM 30.2 °F - 30.2 °F 100% 29.86 in 1.0 mi Calm Calm - N/A   Overcast
3:43 AM 30.2 °F - 30.2 °F 100% 29.86 in 2.0 mi Calm Calm - N/A   Overcast
3:53 AM 32.0 °F - 30.9 °F 96% 29.92 in 2.5 mi Calm Calm - N/A   Overcast
4:24 AM 32.0 °F - 32.0 °F 100% 29.84 in 3.0 mi Calm Calm - N/A   Overcast
4:53 AM 32.0 °F - 30.9 °F 96% 29.88 in 3.0 mi Calm Calm - N/A   Overcast
5:53 AM 33.1 °F 27.7 °F 33.1 °F 100% 29.86 in 7.0 mi South 5.8 mph - N/A   Overcast
6:53 AM 33.1 °F - 32.0 °F 96% 29.83 in 5.0 mi Calm Calm - N/A   Overcast
7:49 AM 33.8 °F 30.8 °F 32.0 °F 93% 29.74 in 5.0 mi ESE 3.5 mph - N/A   Overcast
7:53 AM 33.1 °F - 32.0 °F 96% 29.80 in 6.0 mi Calm Calm - N/A   Overcast
8:38 AM 33.8 °F 30.8 °F 32.0 °F 93% 29.72 in 10.0 mi SSE 3.5 mph - N/A   Overcast
8:53 AM 34.0 °F 29.8 °F 32.0 °F 92% 29.77 in 10.0 mi SSE 4.6 mph - N/A   Overcast
9:19 AM 33.8 °F 30.8 °F 33.8 °F 100% 29.70 in 10.0 mi ESE 3.5 mph - N/A   Overcast
9:53 AM 34.0 °F - 32.0 °F 92% 29.76 in 10.0 mi Calm Calm - N/A   Overcast
10:53 AM 35.1 °F 30.1 °F 30.9 °F 85% 29.73 in 10.0 mi SSW 5.8 mph - N/A   Overcast
11:53 AM 35.1 °F - 32.0 °F 89% 29.69 in 10.0 mi Calm Calm - N/A   Overcast
12:53 PM 35.1 °F - 32.0 °F 89% 29.67 in 10.0 mi Calm Calm - N/A   Overcast
1:53 PM 34.0 °F 29.8 °F 32.0 °F 92% 29.65 in 10.0 mi NE 4.6 mph - N/A   Overcast
2:53 PM 34.0 °F - 32.0 °F 92% 29.64 in 10.0 mi Calm Calm - N/A   Overcast
3:53 PM 34.0 °F - 32.0 °F 92% 29.63 in 10.0 mi Calm Calm - N/A   Overcast
4:53 PM 30.9 °F 27.5 °F 30.0 °F 96% 29.62 in 10.0 mi NNW 3.5 mph - N/A   Overcast
5:44 PM 33.8 °F - 32.0 °F 93% 29.57 in 6.0 mi Calm Calm - 0.00 in Snow Light Snow
5:53 PM 33.1 °F - 32.0 °F 96% 29.62 in 5.0 mi Calm Calm - 0.01 in Snow Light Snow
6:30 PM 33.8 °F - 32.0 °F 93% 29.56 in 3.0 mi Calm Calm - 0.01 in Snow Light Snow
6:41 PM 33.8 °F - 32.0 °F 93% 29.56 in 2.5 mi Calm Calm - 0.02 in Snow Light Snow
6:50 PM 33.8 °F 30.8 °F 32.0 °F 93% 29.55 in 4.0 mi NE 3.5 mph - 0.02 in Snow Light Snow
6:53 PM 33.1 °F 30.0 °F 32.0 °F 96% 29.61 in 4.0 mi NE 3.5 mph - 0.02 in Snow Light Snow
7:04 PM 33.8 °F 30.8 °F 32.0 °F 93% 29.56 in 7.0 mi NE 3.5 mph - 0.00 in   Overcast
7:53 PM 33.1 °F 28.7 °F 32.0 °F 96% 29.60 in 7.0 mi NE 4.6 mph - 0.00 in   Overcast
8:37 PM 33.8 °F 30.8 °F 33.8 °F 100% 29.55 in 9.0 mi NE 3.5 mph - N/A   Overcast
8:53 PM 33.1 °F 28.7 °F 32.0 °F 96% 29.60 in 7.0 mi NE 4.6 mph - N/A   Overcast
9:53 PM 33.1 °F - 33.1 °F 100% 29.60 in 8.0 mi Calm Calm - N/A   Overcast
10:53 PM 33.1 °F - 32.0 °F 96% 29.61 in 3.0 mi Calm Calm - N/A   Overcast
11:32 PM 33.8 °F - 32.0 °F 93% 29.56 in 2.5 mi Calm Calm - N/A   Overcast
11:53 PM 33.1 °F - 32.0 °F 96% 29.61 in 2.0 mi Calm Calm - N/A   Overcast